�������l�o���
Date,Time,MP-1(��Sv/h),MP-2(��Sv/h),MP-3(��Sv/h),MP-4(��Sv/h),MP-5(��Sv/h),MP-6(��Sv/h),MP-7(��Sv/h),MP-8(��Sv/h),����,����(m/s),���J
2017/02/27,00:00,1.058,1.774,1.178,2.058,1.439,0.556,1.022,0.949,�k�k��,3.1,��
2017/02/27,00:10,1.057,1.775,1.181,2.058,1.434,0.557,1.022,0.946,�k��,2.6,��
2017/02/27,00:20,1.055,1.777,1.177,2.057,1.437,0.554,1.020,0.948,��,1.4,��
2017/02/27,00:30,1.057,1.774,1.179,2.061,1.435,0.556,1.023,0.945,���k��,1.4,��
2017/02/27,00:40,1.057,1.774,1.179,2.058,1.437,0.556,1.021,0.949,�k,1.9,��
2017/02/27,00:50,1.056,1.775,1.179,2.058,1.433,0.555,1.022,0.949,�k,1.7,��
2017/02/27,01:00,1.057,1.775,1.180,2.063,1.437,0.554,1.021,0.949,�k,2.0,��
2017/02/27,01:10,1.059,1.775,1.177,2.058,1.438,0.556,1.022,0.949,�k�k��,2.3,��
2017/02/27,01:20,1.057,1.777,1.176,2.058,1.436,0.558,1.021,0.950,�k�k��,1.5,��
2017/02/27,01:30,1.057,1.778,1.178,2.059,1.437,0.555,1.022,0.947,-,CALM,��
2017/02/27,01:40,1.056,1.774,1.176,2.057,1.437,0.556,1.021,0.948,�k,1.5,��
2017/02/27,01:50,1.055,1.778,1.178,2.058,1.440,0.556,1.023,0.948,�k��,1.4,��
2017/02/27,02:00,1.055,1.777,1.178,2.057,1.437,0.556,1.022,0.948,�k�k��,2.5,��
2017/02/27,02:10,1.057,1.774,1.180,2.060,1.437,0.556,1.023,0.948,�k�k��,1.7,��
2017/02/27,02:20,1.057,1.778,1.178,2.061,1.437,0.558,1.023,0.950,�k,2.6,��
2017/02/27,02:30,1.054,1.774,1.178,2.057,1.434,0.555,1.022,0.948,�k,3.1,��
2017/02/27,02:40,1.056,1.776,1.178,2.060,1.434,0.556,1.023,0.948,�k��,3.4,��
2017/02/27,02:50,1.056,1.777,1.178,2.058,1.437,0.556,1.022,0.947,�k�k��,4.9,��
2017/02/27,03:00,1.056,1.776,1.175,2.060,1.436,0.556,1.021,0.948,�k��,5.3,��
2017/02/27,03:10,1.054,1.777,1.177,2.059,1.436,0.556,1.021,0.947,�k�k��,7.7,��
2017/02/27,03:20,1.053,1.778,1.178,2.054,1.437,0.555,1.022,0.948,�k�k��,6.6,��
2017/02/27,03:30,1.055,1.776,1.177,2.055,1.435,0.555,1.019,0.947,�k�k��,5.7,��
2017/02/27,03:40,1.053,1.774,1.176,2.056,1.435,0.555,1.022,0.947,�k�k��,5.9,��
2017/02/27,03:50,1.055,1.773,1.177,2.055,1.435,0.554,1.021,0.947,�k,5.5,��
2017/02/27,04:00,1.054,1.775,1.173,2.056,1.436,0.555,1.021,0.949,�k,4.7,��
2017/02/27,04:10,1.055,1.776,1.174,2.055,1.434,0.555,1.021,0.948,�k,4.7,��
2017/02/27,04:20,1.053,1.773,1.176,2.057,1.434,0.554,1.019,0.946,�k,5.2,��
2017/02/27,04:30,1.054,1.773,1.173,2.056,1.433,0.555,1.019,0.946,�k,5.5,��
2017/02/27,04:40,1.052,1.775,1.177,2.055,1.435,0.554,1.019,0.946,�k,5.3,��
2017/02/27,04:50,1.054,1.774,1.175,2.056,1.432,0.553,1.019,0.946,�k,5.4,��
2017/02/27,05:00,1.055,1.767,1.175,2.055,1.431,0.555,1.018,0.947,�k,5.3,��
2017/02/27,05:10,1.055,1.773,1.172,2.051,1.433,0.553,1.021,0.946,�k,4.7,��
2017/02/27,05:20,1.052,1.775,1.174,2.055,1.433,0.553,1.020,0.947,�k,5.1,��
2017/02/27,05:30,1.052,1.771,1.174,2.056,1.431,0.553,1.019,0.948,�k,4.9,��
2017/02/27,05:40,1.054,1.770,1.173,2.057,1.434,0.553,1.018,0.947,�k,4.9,��
2017/02/27,05:50,1.053,1.774,1.173,2.056,1.433,0.553,1.018,0.947,�k,5.1,��
2017/02/27,06:00,1.054,1.773,1.173,2.054,1.433,0.554,1.020,0.947,�k,5.1,��
2017/02/27,06:10,1.053,1.773,1.172,2.053,1.432,0.553,1.020,0.948,�k,5.4,��
2017/02/27,06:20,1.053,1.772,1.174,2.053,1.431,0.555,1.019,0.947,�k,5.6,��
2017/02/27,06:30,1.052,1.774,1.172,2.055,1.431,0.554,1.019,0.949,�k�k��,6.4,��
2017/02/27,06:40,1.053,1.773,1.173,2.054,1.430,0.553,1.020,0.948,�k�k��,5.7,��
2017/02/27,06:50,1.049,1.774,1.173,2.056,1.433,0.554,1.019,0.944,�k�k��,5.0,��
2017/02/27,07:00,1.052,1.772,1.171,2.056,1.434,0.553,1.017,0.946,�k�k��,4.7,��
2017/02/27,07:10,1.052,1.774,1.171,2.056,1.431,0.551,1.020,0.948,�k�k��,4.3,��
2017/02/27,07:20,1.052,1.775,1.175,2.055,1.433,0.553,1.019,0.946,�k,6.2,��
2017/02/27,07:30,1.052,1.773,1.173,2.056,1.429,0.552,1.019,0.946,�k,5.9,��
2017/02/27,07:40,1.054,1.775,1.173,2.056,1.431,0.552,1.021,0.947,�k�k��,5.8,��
2017/02/27,07:50,1.055,1.772,1.175,2.059,1.433,0.554,1.018,0.947,�k,5.4,��
2017/02/27,08:00,1.056,1.774,1.176,2.055,1.432,0.552,1.019,0.946,�k�k��,5.6,��
2017/02/27,08:10,1.054,1.774,1.174,2.057,1.433,0.554,1.022,0.948,�k�k��,5.8,��
2017/02/27,08:20,1.055,1.774,1.174,2.056,1.435,0.551,1.020,0.948,�k,4.3,��
2017/02/27,08:30,1.054,1.777,1.175,2.058,1.435,0.554,1.022,0.947,�k�k��,4.5,��
2017/02/27,08:40,1.054,1.776,1.173,2.059,1.434,0.554,1.021,0.948,�k�k��,5.2,��
2017/02/27,08:50,1.054,1.776,1.173,2.058,1.433,0.553,1.021,0.948,�k�k��,6.1,��
2017/02/27,09:00,1.055,1.777,1.171,2.057,1.436,0.553,1.022,0.948,�k�k��,6.8,��
2017/02/27,09:10,1.060,1.778,1.170,2.058,1.433,0.556,1.020,0.949,�k�k��,7.6,��
2017/02/27,09:20,1.058,1.780,1.177,2.056,1.433,0.555,1.021,0.950,�k�k��,6.4,��
2017/02/27,09:30,1.057,1.774,1.177,2.060,1.434,0.555,1.022,0.949,�k,6.1,��
2017/02/27,09:40,1.055,1.777,1.176,2.058,1.435,0.554,1.019,0.948,�k�k��,6.9,��
2017/02/27,09:50,1.055,1.775,1.174,2.057,1.435,0.556,1.020,0.949,�k�k��,9.6,��
2017/02/27,10:00,1.055,1.773,1.178,2.058,1.433,0.553,1.020,0.948,�k�k��,8.0,��
2017/02/27,10:10,1.054,1.772,1.177,2.061,1.433,0.555,1.019,0.949,�k�k��,8.4,��
2017/02/27,10:20,1.056,1.772,1.175,2.059,1.432,0.556,1.019,0.950,�k�k��,8.8,��
2017/02/27,10:30,1.056,1.773,1.175,2.059,1.436,0.555,1.018,0.948,�k�k��,9.1,��
2017/02/27,10:40,1.054,1.774,1.177,2.060,1.435,0.556,1.019,0.949,�k�k��,8.5,��
2017/02/27,10:50,1.055,1.776,1.176,2.063,1.436,0.555,1.019,0.950,�k�k��,7.6,��
2017/02/27,11:00,1.055,1.778,1.175,2.060,1.439,0.553,1.019,0.949,�k�k��,8.1,��
2017/02/27,11:10,1.056,1.779,1.175,2.060,1.435,0.555,1.017,0.948,�k�k��,8.1,��
2017/02/27,11:20,1.057,1.776,1.177,2.062,1.438,0.554,1.019,0.948,�k�k��,7.8,��
2017/02/27,11:30,1.059,1.777,1.175,2.061,1.437,0.553,1.019,0.950,�k�k��,7.3,��
2017/02/27,11:40,1.055,1.775,1.177,2.063,1.437,0.554,1.019,0.950,�k�k��,7.9,��
2017/02/27,11:50,1.057,1.776,1.176,2.061,1.436,0.554,1.019,0.949,�k�k��,7.5,��
2017/02/27,12:00,1.057,1.780,1.177,2.060,1.436,0.556,1.020,0.947,�k�k��,7.6,��
2017/02/27,12:10,1.059,1.776,1.179,2.062,1.438,0.554,1.019,0.948,�k�k��,7.3,��
2017/02/27,12:20,1.058,1.779,1.176,2.059,1.439,0.555,1.019,0.950,�k��,6.2,��
2017/02/27,12:30,1.056,1.779,1.174,2.062,1.439,0.555,1.018,0.950,�k�k��,5.6,��
2017/02/27,12:40,1.058,1.779,1.175,2.063,1.438,0.556,1.021,0.948,�k�k��,6.5,��
2017/02/27,12:50,1.059,1.777,1.174,2.063,1.436,0.555,1.014,0.949,�k�k��,6.0,��
2017/02/27,13:00,1.054,1.777,1.179,2.061,1.438,0.556,1.017,0.950,�k�k��,6.0,��
2017/02/27,13:10,1.057,1.779,1.178,2.061,1.438,0.555,1.015,0.949,�k��,5.2,��
2017/02/27,13:20,1.059,1.782,1.176,2.061,1.441,0.554,1.018,0.950,�k�k��,6.2,��
2017/02/27,13:30,1.057,1.781,1.175,2.064,1.440,0.553,1.016,0.949,�k�k��,5.7,��
2017/02/27,13:40,1.059,1.781,1.178,2.059,1.440,0.556,1.015,0.948,�k�k��,5.0,��
2017/02/27,13:50,1.060,1.784,1.178,2.060,1.442,0.555,1.019,0.948,�k��,4.4,��
2017/02/27,14:00,1.060,1.785,1.176,2.062,1.442,0.553,1.018,0.946,�k�k��,5.1,��
2017/02/27,14:10,1.058,1.782,1.178,2.064,1.440,0.555,1.019,0.947,�k��,4.6,��
2017/02/27,14:20,1.056,1.779,1.178,2.060,1.442,0.555,1.020,0.947,�k�k��,4.4,��
2017/02/27,14:30,1.059,1.784,1.176,2.062,1.441,0.555,1.019,0.948,�k�k��,3.8,��
2017/02/27,14:40,1.058,1.783,1.176,2.062,1.442,0.555,1.018,0.952,�k��,3.9,��
2017/02/27,14:50,1.059,1.783,1.177,2.061,1.440,0.556,1.020,0.951,�k�k��,4.8,��
2017/02/27,15:00,1.062,1.784,1.179,2.062,1.443,0.554,1.021,0.949,�k��,5.5,��
2017/02/27,15:10,1.059,1.782,1.178,2.063,1.440,0.556,1.019,0.948,�k��,4.7,��
2017/02/27,15:20,1.060,1.782,1.179,2.060,1.439,0.554,1.025,0.949,�k�k��,4.1,��
2017/02/27,15:30,1.060,1.782,1.181,2.062,1.441,0.555,1.020,0.950,�k�k��,4.7,��
2017/02/27,15:40,1.057,1.779,1.180,2.065,1.439,0.555,1.023,0.950,�k,5.4,��
2017/02/27,15:50,1.058,1.783,1.182,2.064,1.441,0.556,1.021,0.951,�k�k��,6.4,��
2017/02/27,16:00,1.056,1.784,1.179,2.061,1.440,0.556,1.022,0.948,�k�k��,6.1,��
2017/02/27,16:10,1.061,1.784,1.181,2.064,1.443,0.555,1.023,0.948,�k,7.2,��
2017/02/27,16:20,1.058,1.778,1.178,2.062,1.439,0.555,1.022,0.949,�k�k��,6.0,��
2017/02/27,16:30,1.059,1.782,1.179,2.063,1.440,0.555,1.022,0.949,�k�k��,7.6,��
2017/02/27,16:40,1.058,1.781,1.178,2.063,1.443,0.555,1.023,0.949,�k�k��,7.2,��
2017/02/27,16:50,1.057,1.781,1.178,2.065,1.441,0.556,1.025,0.949,�k,7.1,��
2017/02/27,17:00,1.055,1.780,1.177,2.061,1.440,0.555,1.023,0.949,�k,7.5,��
2017/02/27,17:10,1.059,1.782,1.178,2.062,1.438,0.556,1.024,0.950,�k�k��,7.6,��
2017/02/27,17:20,1.057,1.780,1.179,2.063,1.442,0.555,1.022,0.949,�k�k��,8.3,��
2017/02/27,17:30,1.058,1.783,1.181,2.062,1.438,0.555,1.023,0.950,�k�k��,8.1,��
2017/02/27,17:40,1.055,1.781,1.178,2.064,1.440,0.556,1.023,0.949,�k�k��,7.7,��
2017/02/27,17:50,1.056,1.779,1.180,2.063,1.439,0.553,1.022,0.947,�k,8.4,��
2017/02/27,18:00,1.055,1.784,1.179,2.063,1.440,0.555,1.023,0.948,�k�k��,8.9,��
2017/02/27,18:10,1.058,1.784,1.176,2.059,1.442,0.555,1.022,0.950,�k,7.8,��
2017/02/27,18:20,1.057,1.780,1.178,2.062,1.441,0.555,1.021,0.947,�k,7.0,��
2017/02/27,18:30,1.057,1.777,1.175,2.061,1.440,0.555,1.021,0.948,�k��,7.7,��
2017/02/27,18:40,1.055,1.779,1.178,2.061,1.443,0.555,1.021,0.946,�k��,7.4,��
2017/02/27,18:50,1.054,1.781,1.176,2.061,1.440,0.555,1.020,0.947,�k��,7.2,��
2017/02/27,19:00,1.056,1.780,1.178,2.063,1.442,0.556,1.022,0.949,�k�k��,6.5,��
2017/02/27,19:10,1.056,1.781,1.178,2.063,1.440,0.558,1.024,0.949,�k��,7.8,��
2017/02/27,19:20,1.056,1.782,1.178,2.061,1.442,0.555,1.020,0.948,�k��,8.1,��
2017/02/27,19:30,1.053,1.781,1.176,2.062,1.441,0.555,1.023,0.949,�k�k��,7.0,��
2017/02/27,19:40,1.054,1.778,1.177,2.061,1.441,0.553,1.022,0.948,�k�k��,7.9,��
2017/02/27,19:50,1.052,1.781,1.177,2.062,1.441,0.555,1.022,0.948,�k��,7.5,��
2017/02/27,20:00,1.056,1.783,1.176,2.063,1.440,0.555,1.021,0.947,�k��,6.1,��
2017/02/27,20:10,1.053,1.780,1.175,2.062,1.440,0.556,1.020,0.947,�k�k��,6.5,��
2017/02/27,20:20,1.055,1.780,1.179,2.062,1.440,0.554,1.023,0.947,�k��,7.3,��
2017/02/27,20:30,1.057,1.777,1.178,2.061,1.442,0.556,1.020,0.947,�k�k��,6.7,��
2017/02/27,20:40,1.054,1.778,1.177,2.063,1.439,0.555,1.024,0.949,�k�k��,6.0,��
2017/02/27,20:50,1.054,1.782,1.177,2.062,1.438,0.554,1.023,0.949,�k�k��,6.3,��
2017/02/27,21:00,1.057,1.778,1.179,2.058,1.440,0.554,1.023,0.947,�k�k��,5.9,��
2017/02/27,21:10,1.054,1.782,1.178,2.062,1.440,0.556,1.021,0.949,�k�k��,6.2,��
2017/02/27,21:20,1.055,1.780,1.175,2.059,1.441,0.555,1.023,0.947,�k�k��,6.4,��
2017/02/27,21:30,1.054,1.782,1.178,2.061,1.442,0.554,1.022,0.948,�k�k��,5.8,��
2017/02/27,21:40,1.054,1.778,1.178,2.061,1.440,0.554,1.021,0.948,�k��,6.2,��
2017/02/27,21:50,1.054,1.778,1.175,2.060,1.442,0.555,1.021,0.948,�k�k��,5.3,��
2017/02/27,22:00,1.054,1.776,1.175,2.063,1.442,0.556,1.022,0.949,�k�k��,5.5,��
2017/02/27,22:10,1.052,1.781,1.177,2.061,1.440,0.555,1.023,0.947,�k�k��,6.1,��
2017/02/27,22:20,1.053,1.782,1.177,2.063,1.438,0.554,1.020,0.948,�k�k��,3.2,��
2017/02/27,22:30,1.053,1.779,1.177,2.063,1.441,0.554,1.021,0.949,�k�k��,3.7,��
2017/02/27,22:40,1.054,1.780,1.179,2.058,1.436,0.555,1.020,0.947,�k�k��,4.2,��
2017/02/27,22:50,1.053,1.783,1.175,2.061,1.438,0.554,1.022,0.948,�k�k��,4.3,��
2017/02/27,23:00,1.053,1.778,1.180,2.063,1.439,0.555,1.021,0.950,�k�k��,4.2,��
2017/02/27,23:10,1.054,1.780,1.176,2.063,1.438,0.555,1.021,0.947,�k�k��,4.3,��
2017/02/27,23:20,1.054,1.779,1.174,2.058,1.439,0.556,1.021,0.948,�k��,5.2,��
2017/02/27,23:30,1.054,1.779,1.175,2.062,1.439,0.555,1.022,0.946,�k�k��,5.2,��
2017/02/27,23:40,1.052,1.778,1.176,2.059,1.437,0.555,1.020,0.947,�k��,5.2,��
2017/02/27,23:50,1.054,1.778,1.177,2.060,1.438,0.555,1.022,0.947,�k�k��,4.8,��
